Location: Boiro
(42.6475°N, 8.8834°W)
Time: 05:03:03
(UTC+01:00)

Transit 4A - Pass Details

Date: 06 December 2021
Orbit: 864 x 980 km, 66.8° (Epoch: 17 January)

Event Time Altitude Azimuth Distance (km) Brightness Sun altitude
Exits shadow 04:41:33 14° 119° (ESE) 2,419 10.4 -45.0°
Drops below altitude 10° 04:42:27 10° 123° (ESE) 2,720 10.7 -44.9°
Sets 04:45:09 0° 129° (SE) 3,669 11.4 -44.4°
